IZ1ERR Weather Reports


time (UTC)temp
C
wind
direction
speed
KPH
gust
KPH
rain 1hr
cm
rain 24hr
cm
rain mn
cm
humidity
%
barometer
mb
20260506215017 12 0.0 1.6 0.05 1.88 1.88 91 1010.3
20260506214017 12 0.0 0.0 0.05 1.88 1.88 91 1010.3
20260506213017 12 0.0 1.6 0.03 1.85 1.85 90 1010.4
20260506212016 13 0.0 1.6 0.00 1.83 1.83 90 1010.4
20260506211016 13 0.0 0.0 0.00 1.80 1.80 89 1010.3
20260506210017 13 0.0 0.0 0.00 1.80 1.80 89 1010.2
20260506205036 13 0.0 0.0 0.00 1.80 1.80 88 1010.0
20260506204016 13 0.0 0.0 0.00 1.80 1.80 88 1009.9
20260506203036 13 0.0 0.0 0.00 1.80 1.80 87 1009.7
20260506202037 13 0.0 0.0 0.00 1.80 1.80 86 1009.7
20260506201017 13 0.0 0.0 0.00 1.80 1.80 86 1009.5
20260506200017 13 0.0 0.0 0.00 1.80 1.80 86 1009.4
20260506195037 13 0.0 0.0 0.00 1.80 1.80 86 1009.3
20260506194016 13 0.0 0.0 0.00 1.80 1.80 86 1009.1
20260506193017 13 0.0 0.0 0.00 1.80 1.80 87 1008.9
20260506192016 13 0.0 0.0 0.00 1.80 1.80 86 1008.7
20260506191016 13 0.0 0.0 0.00 1.80 1.80 85 1008.6
20260506190018 13 0.0 0.0 0.00 1.80 1.80 85 1008.5
20260506185017 14 0.0 0.0 0.00 1.80 1.80 84 1008.3
20260506184016 14 0.0 0.0 0.00 1.80 1.80 82 1008.1
20260506183016 14 0.0 1.6 0.00 1.80 1.80 81 1007.8
20260506182036 15 0.0 1.6 0.00 1.80 1.80 81 1007.6
20260506181016 15 0.0 1.6 0.00 1.80 1.80 81 1007.5
20260506180016 15 0.0 0.0 0.00 1.80 1.80 80 1007.4
20260506175037 15 0.0 1.6 0.00 1.80 1.80 79 1007.2
20260506174016 15 45 1.6 6.4 0.00 1.80 1.80 78 1007.0
20260506173016 15 67 8.0 16.1 0.00 1.80 1.80 76 1006.8
20260506172017 16 67 12.9 24.1 0.00 1.80 1.80 75 1006.7
20260506171017 17 67 1.6 24.1 0.00 1.80 1.80 66 1006.5
20260506170017 17 0.0 3.2 0.00 1.80 1.80 62 1006.2
20260506165016 17 0.0 8.0 0.00 1.80 1.80 67 1006.1
20260506164016 17 67 3.2 8.0 0.00 1.80 1.80 70 1006.0
20260506163016 17 67 3.2 9.7 0.00 1.80 1.80 68 1005.9
20260506162016 17 0.0 4.8 0.00 1.80 1.80 68 1005.7
20260506161016 17 0 3.2 9.7 0.00 1.80 1.80 70 1005.6
20260506160016 17 337 4.8 8.0 0.00 1.80 1.80 72 1005.6
20260506155017 16 337 3.2 12.9 0.00 1.80 1.80 73 1005.6
20260506154036 16 337 4.8 14.5 0.00 1.80 1.80 75 1005.8
20260506153016 16 337 6.4 12.9 0.00 1.80 1.80 72 1006.1
20260506152016 15 315 1.6 11.3 0.00 1.80 1.80 76 1006.2
20260506151017 15 315 3.2 11.3 0.00 1.80 1.80 78 1006.4
20260506150016 15 0 1.6 12.9 0.00 1.80 1.80 77 1006.6
20260506145016 15 337 4.8 11.3 0.00 1.80 1.80 75 1006.7
20260506144016 16 0 3.2 12.9 0.00 1.80 1.80 74 1006.4
20260506143016 16 315 1.6 9.7 0.00 1.80 1.80 66 1006.3
20260506142036 16 315 4.8 14.5 0.00 1.80 1.80 63 1006.5
20260506141016 17 270 3.2 16.1 0.00 1.80 1.80 69 1006.8
20260506140016 17 0.0 0.0 0.00 1.80 1.80 68 1006.7
20260506135016 17 0.0 4.8 0.00 1.80 1.80 68 1006.6
20260506134017 17 67 4.8 12.9 0.00 1.80 1.80 68 1006.6
20260506133016 17 45 3.2 12.9 0.00 1.80 1.80 70 1006.6
20260506132016 17 67 4.8 14.5 0.00 1.80 1.80 71 1006.6
20260506131016 17 67 6.4 14.5 0.00 1.80 1.80 71 1006.7
20260506130016 18 0.0 3.2 0.00 1.80 1.80 70 1006.7
20260506125016 18 112 3.2 14.5 0.00 1.80 1.80 66 1006.7
20260506124016 18 90 1.6 12.9 0.00 1.80 1.80 67 1006.7
20260506123016 18 180 1.6 4.8 0.00 1.80 1.80 64 1006.8
20260506122016 17 90 1.6 9.7 0.00 1.80 1.80 65 1006.8
20260506121016 17 67 3.2 12.9 0.00 1.80 1.80 66 1006.8
20260506120016 18 157 1.6 8.0 0.00 1.80 1.80 63 1006.9
20260506115016 18 157 1.6 6.4 0.00 1.80 1.80 66 1007.0
20260506114016 18 135 3.2 9.7 0.00 1.80 1.80 66 1007.0
20260506113016 18 180 3.2 8.0 0.00 1.80 1.80 68 1006.8
20260506112016 17 0.0 6.4 0.00 1.80 1.80 72 1006.9
20260506111016 17 0.0 4.8 0.00 1.80 1.80 74 1007.0
20260506110016 16 0.0 6.4 0.00 1.80 1.80 80 1007.1
20260506105036 15 135 1.6 8.0 0.00 1.80 1.80 80 1007.3
20260506104016 15 0.0 4.8 0.00 1.80 1.80 85 1007.3
20260506103016 14 0.0 4.8 0.00 1.80 1.80 90 1007.2
20260506102016 13 0.0 3.2 0.00 1.80 1.80 92 1007.1
20260506101016 13 180 1.6 4.8 0.00 1.80 1.80 94 1007.0
20260506100016 12 225 1.6 6.4 0.03 1.80 1.80 94 1007.1
20260506095016 12 225 4.8 11.3 0.03 1.80 1.80 94 1007.1
20260506094016 12 247 3.2 8.0 0.05 1.80 1.80 96 1007.1
20260506093056 12 225 3.2 8.0 0.08 1.80 1.80 97 1007.1
20260506092016 11 247 3.2 8.0 0.10 1.80 1.80 96 1007.2
20260506091016 11 270 4.8 8.0 0.08 1.78 1.78 96 1007.4
20260506090016 11 247 4.8 8.0 0.15 1.78 1.78 96 1007.5
20260506085056 11 0.0 6.4 0.18 1.78 1.78 96 1007.5
20260506084016 11 0.0 6.4 0.18 1.75 1.75 97 1007.5
20260506083016 10 0.0 1.6 0.28 1.73 1.73 97 1007.7
20260506082016 10 0 1.6 11.3 0.43 1.68 1.68 97 1007.7
20260506081016 10 0.0 0.0 0.48 1.68 1.68 97 1007.7
20260506073016 10 0 1.6 11.3 0.46 1.45 1.45 97 1007.6
20260506072016 11 0.0 1.6 0.33 1.27 1.24 97 1007.8
20260506071016 11 0.0 0.0 0.30 1.22 1.19 97 1007.6
20260506062016 11 247 3.2 6.4 0.56 0.94 0.91 97 1007.8
20260506061036 11 0.0 0.0 0.53 0.91 0.86 97 1007.8
20260506051016 11 0.0 0.0 0.18 0.56 0.33 97 1008.2
20260506045016 11 0.0 0.0 0.13 0.64 0.28 97 1008.2
20260506044016 11 0.0 0.0 0.13 0.69 0.25 97 1008.5
20260506043016 11 0.0 1.6 0.10 0.71 0.20 97 1008.5
20260506042016 11 0.0 0.0 0.08 0.71 0.18 97 1008.5
20260506041016 11 0.0 1.6 0.05 0.74 0.15 97 1008.5
20260506040016 11 0.0 1.6 0.03 0.71 0.13 97 1008.5
20260506035016 11 0.0 1.6 0.03 0.74 0.13 97 1008.5
20260506034016 11 0.0 1.6 0.00 0.74 0.10 97 1008.7
20260506033016 11 0.0 0.0 0.00 0.71 0.08 97 1008.8
20260506032016 11 0.0 0.0 0.00 0.71 0.08 97 1009.0
20260506031016 11 0.0 0.0 0.00 0.71 0.08 97 1009.1
20260506030016 11 0.0 0.0 0.00 0.71 0.08 96 1009.2
20260506025016 11 0.0 0.0 0.00 0.71 0.08 96 1009.3
20260506024016 11 0.0 0.0 0.00 0.71 0.08 96 1009.4
20260506023016 11 0.0 0.0 0.00 0.71 0.08 96 1009.5
20260506022016 11 0.0 0.0 0.03 0.71 0.08 96 1009.6
20260506021016 11 0.0 0.0 0.03 0.71 0.08 96 1009.6
20260506020016 11 0.0 0.0 0.05 0.71 0.08 96 1009.6
20260506015016 11 0.0 0.0 0.08 0.71 0.08 96 1009.7
20260506014036 11 0.0 0.0 0.08 0.71 0.08 96 1009.6
20260506013016 11 0.0 0.0 0.08 0.69 0.08 96 1009.8
20260506012016 12 0.0 0.0 0.05 0.66 0.05 96 1010.0
20260506011016 12 0.0 0.0 0.05 0.66 0.05 95 1010.3
20260506010016 12 0.0 1.6 0.03 0.66 0.03 95 1010.4
20260506005016 12 0.0 1.6 0.00 0.66 0.00 95 1010.6
20260506004016 12 0.0 0.0 0.00 0.64 0.00 95 1010.8
20260506003016 12 0.0 0.0 0.00 0.64 0.00 95 1010.8
20260506002036 12 0.0 0.0 0.00 0.64 0.00 95 1010.8
20260506001016 12 0.0 0.0 0.00 0.64 0.00 95 1011.0
20260506000016 12 0.0 0.0 0.00 0.64 0.00 95 1011.1
20260505235016 12 0.0 0.0 0.00 0.64 0.00 95 1011.2
20260505234016 12 0.0 1.6 0.00 0.64 0.00 94 1011.2
20260505233016 12 0.0 0.0 0.00 0.64 0.00 94 1011.3
20260505232016 12 0.0 0.0 0.00 0.64 0.00 94 1011.5
20260505231016 12 0.0 1.6 0.00 0.64 0.00 94 1011.6
20260505230016 12 0.0 1.6 0.00 0.64 0.00 94 1011.8
20260505225036 12 0.0 0.0 0.00 0.64 0.00 94 1011.6
20260505224016 12 0.0 0.0 0.00 0.64 0.00 94 1011.5
20260505223016 12 0.0 0.0 0.00 0.64 0.00 94 1011.6
20260505222016 12 0.0 0.0 0.00 0.64 0.00 94 1011.9
20260505221056 12 0.0 0.0 0.00 0.64 0.00 94 1011.9
20260505220016 12 0.0 0.0 0.00 0.64 0.00 94 1011.8